| time (UTC) | temp F | wind direction | speed MPH | gust MPH | rain 1hr in | rain 24hr in | rain mn in | humidity % | barometer mb |
| 20260906225004 | 63 | 314 | 1.0 | 3.0 | 0.00 | 0.00 | 0.00 | 53 | 1018.0 |
| 20260906224504 | 64 | 332 | 2.0 | 3.0 | 0.00 | 0.00 | 0.00 | 51 | 1018.0 |
| 20260906224004 | 65 | 322 | 1.0 | 7.0 | 0.00 | 0.00 | 0.00 | 51 | 1018.0 |
| 20260906223504 | 65 | 308 | 1.0 | 3.0 | 0.00 | 0.00 | 0.00 | 51 | 1017.9 |
| 20260906223004 | 64 | 329 | 1.0 | 5.0 | 0.00 | 0.00 | 0.00 | 51 | 1017.9 |
| 20260906222504 | 65 | 332 | 1.0 | 5.0 | 0.00 | 0.00 | 0.00 | 50 | 1017.9 |
| 20260906222003 | 65 | 315 | 2.0 | 7.0 | 0.00 | 0.00 | 0.00 | 48 | 1017.9 |
| 20260906221504 | 66 | 321 | 0.0 | 3.0 | 0.00 | 0.00 | 0.00 | 49 | 1017.8 |
| 20260906220504 | 65 | 325 | 1.0 | 8.0 | 0.00 | 0.00 | 0.00 | 51 | 1017.9 |
| 20260906220004 | 65 | 320 | 1.0 | 5.0 | 0.00 | 0.00 | 0.00 | 51 | 1017.9 |
| 20260906215503 | 64 | 12 | 0.0 | 3.0 | 0.00 | 0.00 | 0.00 | 56 | 1017.9 |
| 20260906215004 | 63 | 351 | 0.0 | 2.0 | 0.00 | 0.00 | 0.00 | 57 | 1018.1 |
| 20260906214004 | 63 | 315 | 0.0 | 2.0 | 0.00 | 0.00 | 0.00 | 53 | 1018.3 |
| 20260906213504 | 64 | 329 | 0.0 | 2.0 | 0.00 | 0.00 | 0.00 | 51 | 1018.0 |
| 20260906213004 | 65 | 334 | 0.0 | 2.0 | 0.00 | 0.00 | 0.00 | 49 | 1018.0 |
| 20260906212503 | 65 | 329 | 0.0 | 3.0 | 0.00 | 0.00 | 0.00 | 49 | 1017.8 |
| 20260906212004 | 65 | 344 | 0.0 | 3.0 | 0.00 | 0.00 | 0.00 | 49 | 1017.8 |
| 20260906211504 | 64 | 349 | 0.0 | 3.0 | 0.00 | 0.00 | 0.00 | 50 | 1017.8 |
| 20260906210004 | 65 | 354 | 0.0 | 2.0 | 0.00 | 0.00 | 0.00 | 48 | 1017.5 |
| 20260906205504 | 66 | 351 | 0.0 | 1.0 | 0.00 | 0.00 | 0.00 | 47 | 1017.6 |
| 20260906205004 | 67 | 3 | 0.0 | 2.0 | 0.00 | 0.00 | 0.00 | 46 | 1017.5 |
| 20260906204504 | 67 | 3 | 0.0 | 0.0 | 0.00 | 0.00 | 0.00 | 45 | 1017.5 |
| 20260906203504 | 69 | 342 | 0.0 | 1.0 | 0.00 | 0.00 | 0.00 | 42 | 1017.5 |
| 20260906203003 | 69 | 27 | 0.0 | 2.0 | 0.00 | 0.00 | 0.00 | 43 | 1017.5 |
| 20260906202504 | 68 | 19 | 0.0 | 2.0 | 0.00 | 0.00 | 0.00 | 44 | 1017.5 |
| 20260906202004 | 68 | 323 | 0.0 | 1.0 | 0.00 | 0.00 | 0.00 | 44 | 1017.5 |
| 20260906201504 | 69 | 348 | 0.0 | 0.0 | 0.00 | 0.00 | 0.00 | 44 | 1017.6 |
| 20260906200004 | 67 | 29 | 0.0 | 0.0 | 0.00 | 0.00 | 0.00 | 46 | 1017.5 |
| 20260906195004 | 67 | 37 | 0.0 | 0.0 | 0.00 | 0.00 | 0.00 | 47 | 1017.5 |
| 20260906194504 | 67 | 34 | 0.0 | 0.0 | 0.00 | 0.00 | 0.00 | 47 | 1017.5 |
| 20260906194003 | 67 | 55 | 0.0 | 0.0 | 0.00 | 0.00 | 0.00 | 48 | 1017.5 |
| 20260906193504 | 67 | 51 | 0.0 | 0.0 | 0.00 | 0.00 | 0.00 | 47 | 1017.5 |
| 20260906193004 | 67 | 46 | 0.0 | 0.0 | 0.00 | 0.00 | 0.00 | 47 | 1017.6 |
| 20260906192504 | 67 | 26 | 0.0 | 0.0 | 0.00 | 0.00 | 0.00 | 47 | 1017.7 |
| 20260906192004 | 66 | 33 | 0.0 | 0.0 | 0.00 | 0.00 | 0.00 | 48 | 1017.8 |
| 20260906191504 | 66 | 31 | 0.0 | 0.0 | 0.00 | 0.00 | 0.00 | 48 | 1017.7 |
| 20260906191004 | 65 | 13 | 0.0 | 0.0 | 0.00 | 0.00 | 0.00 | 49 | 1017.7 |
| 20260906190504 | 65 | 319 | 0.0 | 0.0 | 0.00 | 0.00 | 0.00 | 49 | 1017.8 |
| 20260906190004 | 66 | 356 | 0.0 | 0.0 | 0.00 | 0.00 | 0.00 | 48 | 1017.8 |
| 20260906185503 | 67 | 355 | 0.0 | 3.0 | 0.00 | 0.00 | 0.00 | 48 | 1017.8 |
| 20260906185004 | 66 | 27 | 0.0 | 0.0 | 0.00 | 0.00 | 0.00 | 49 | 1017.8 |
| 20260906184504 | 67 | 333 | 0.0 | 0.0 | 0.00 | 0.00 | 0.00 | 48 | 1017.8 |
| 20260906184004 | 67 | 82 | 0.0 | 0.0 | 0.00 | 0.00 | 0.00 | 49 | 1017.8 |
| 20260906183004 | 65 | 83 | 0.0 | 0.0 | 0.00 | 0.00 | 0.00 | 50 | 1017.9 |
| 20260906182504 | 65 | 99 | 0.0 | 0.0 | 0.00 | 0.00 | 0.00 | 50 | 1017.8 |
| 20260906181004 | 64 | 101 | 0.0 | 0.0 | 0.00 | 0.00 | 0.00 | 51 | 1018.0 |
| 20260906175504 | 63 | 176 | 0.0 | 0.0 | 0.00 | 0.00 | 0.00 | 52 | 1017.9 |
| 20260906175004 | 62 | 109 | 0.0 | 0.0 | 0.00 | 0.00 | 0.00 | 53 | 1017.9 |
| 20260906174504 | 62 | 118 | 0.0 | 0.0 | 0.00 | 0.00 | 0.00 | 54 | 1017.9 |
| 20260906174004 | 62 | 148 | 0.0 | 0.0 | 0.00 | 0.00 | 0.00 | 53 | 1018.0 |
| 20260906173004 | 61 | 129 | 0.0 | 1.0 | 0.00 | 0.00 | 0.00 | 54 | 1018.0 |
| 20260906172503 | 62 | 126 | 0.0 | 1.0 | 0.00 | 0.00 | 0.00 | 53 | 1018.1 |
| 20260906172004 | 62 | 83 | 0.0 | 0.0 | 0.00 | 0.00 | 0.00 | 55 | 1018.0 |
| 20260906171004 | 61 | 125 | 0.0 | 0.0 | 0.00 | 0.00 | 0.00 | 55 | 1018.1 |
| 20260906170004 | 60 | 155 | 0.0 | 1.0 | 0.00 | 0.00 | 0.00 | 56 | 1018.1 |
| 20260906165504 | 60 | 148 | 0.0 | 0.0 | 0.00 | 0.00 | 0.00 | 56 | 1018.1 |
| 20260906165004 | 59 | 157 | 0.0 | 3.0 | 0.00 | 0.00 | 0.00 | 57 | 1018.2 |
| 20260906164504 | 59 | 164 | 0.0 | 3.0 | 0.00 | 0.00 | 0.00 | 57 | 1018.2 |
| 20260906164004 | 59 | 167 | 0.0 | 2.0 | 0.00 | 0.00 | 0.00 | 57 | 1018.2 |
| 20260906162504 | 58 | 118 | 0.0 | 1.0 | 0.00 | 0.00 | 0.00 | 59 | 1018.2 |
| 20260906162004 | 57 | 120 | 0.0 | 0.0 | 0.00 | 0.00 | 0.00 | 59 | 1018.2 |
| 20260906161504 | 57 | 160 | 0.0 | 0.0 | 0.00 | 0.00 | 0.00 | 59 | 1018.2 |
| 20260906161004 | 56 | 160 | 0.0 | 0.0 | 0.00 | 0.00 | 0.00 | 59 | 1018.2 |
| 20260906160504 | 57 | 177 | 0.0 | 1.0 | 0.00 | 0.00 | 0.00 | 60 | 1018.3 |
| 20260906160005 | 56 | 160 | 0.0 | 0.0 | 0.00 | 0.00 | 0.00 | 60 | 1018.3 |
| 20260906155004 | 56 | 119 | 0.0 | 0.0 | 0.00 | 0.00 | 0.00 | 59 | 1018.3 |
| 20260906154504 | 56 | 96 | 0.0 | 0.0 | 0.00 | 0.00 | 0.00 | 59 | 1018.4 |
| 20260906153504 | 55 | 128 | 0.0 | 0.0 | 0.00 | 0.00 | 0.00 | 61 | 1018.5 |
| 20260906153004 | 55 | 128 | 0.0 | 0.0 | 0.00 | 0.00 | 0.00 | 62 | 1018.6 |
| 20260906152504 | 55 | 144 | 0.0 | 0.0 | 0.00 | 0.00 | 0.00 | 62 | 1018.7 |
| 20260906152004 | 54 | 179 | 0.0 | 0.0 | 0.00 | 0.00 | 0.00 | 62 | 1018.6 |
| 20260906151504 | 54 | 217 | 0.0 | 0.0 | 0.00 | 0.00 | 0.00 | 62 | 1018.6 |
| 20260906151005 | 54 | 240 | 0.0 | 0.0 | 0.00 | 0.00 | 0.00 | 62 | 1018.6 |
| 20260906150503 | 54 | 246 | 0.0 | 0.0 | 0.00 | 0.00 | 0.00 | 66 | 1018.5 |
| 20260906145505 | 52 | 267 | 0.0 | 0.0 | 0.00 | 0.00 | 0.00 | 70 | 1018.5 |
| 20260906144504 | 50 | 267 | 0.0 | 0.0 | 0.00 | 0.00 | 0.00 | 71 | 1018.5 |
| 20260906144004 | 50 | 267 | 0.0 | 0.0 | 0.00 | 0.00 | 0.00 | 71 | 1018.5 |
| 20260906143504 | 50 | 267 | 0.0 | 0.0 | 0.00 | 0.00 | 0.00 | 71 | 1018.6 |
| 20260906142504 | 49 | 267 | 0.0 | 0.0 | 0.00 | 0.00 | 0.00 | 72 | 1018.6 |
| 20260906142004 | 49 | 267 | 0.0 | 0.0 | 0.00 | 0.00 | 0.00 | 72 | 1018.7 |
| 20260906141504 | 48 | 267 | 0.0 | 0.0 | 0.00 | 0.00 | 0.00 | 72 | 1018.8 |
| 20260906141004 | 47 | 267 | 0.0 | 0.0 | 0.00 | 0.00 | 0.00 | 72 | 1018.7 |
| 20260906140504 | 47 | 267 | 0.0 | 0.0 | 0.00 | 0.00 | 0.00 | 72 | 1018.6 |
| 20260906135504 | 48 | 267 | 0.0 | 0.0 | 0.00 | 0.00 | 0.00 | 69 | 1018.6 |
| 20260906135004 | 48 | 259 | 0.0 | 0.0 | 0.00 | 0.00 | 0.00 | 68 | 1018.7 |
| 20260906134504 | 49 | 259 | 0.0 | 0.0 | 0.00 | 0.00 | 0.00 | 67 | 1018.6 |
| 20260906133503 | 49 | 263 | 0.0 | 0.0 | 0.00 | 0.00 | 0.00 | 68 | 1018.5 |
| 20260906133005 | 48 | 294 | 0.0 | 0.0 | 0.00 | 0.00 | 0.00 | 69 | 1018.6 |
| 20260906132504 | 48 | 294 | 0.0 | 0.0 | 0.00 | 0.00 | 0.00 | 69 | 1018.6 |
| 20260906132003 | 48 | 295 | 0.0 | 0.0 | 0.00 | 0.00 | 0.00 | 71 | 1018.6 |
| 20260906131503 | 47 | 296 | 0.0 | 0.0 | 0.00 | 0.00 | 0.00 | 71 | 1018.6 |
| 20260906131004 | 47 | 296 | 0.0 | 0.0 | 0.00 | 0.00 | 0.00 | 70 | 1018.6 |
| 20260906130504 | 47 | 296 | 0.0 | 0.0 | 0.00 | 0.00 | 0.00 | 70 | 1018.6 |
| 20260906125504 | 48 | 296 | 0.0 | 0.0 | 0.00 | 0.00 | 0.00 | 68 | 1018.7 |
| 20260906125004 | 49 | 296 | 0.0 | 0.0 | 0.00 | 0.00 | 0.00 | 67 | 1018.7 |
| 20260906124504 | 49 | 296 | 0.0 | 0.0 | 0.00 | 0.00 | 0.00 | 68 | 1018.6 |
| 20260906124004 | 48 | 296 | 0.0 | 0.0 | 0.00 | 0.00 | 0.00 | 69 | 1018.7 |
| 20260906123004 | 46 | 296 | 0.0 | 0.0 | 0.00 | 0.00 | 0.00 | 75 | 1018.9 |
| 20260906122504 | 45 | 296 | 0.0 | 0.0 | 0.00 | 0.00 | 0.00 | 76 | 1018.9 |
| 20260906122004 | 44 | 296 | 0.0 | 0.0 | 0.00 | 0.00 | 0.00 | 76 | 1019.0 |
| 20260906121504 | 45 | 296 | 0.0 | 0.0 | 0.00 | 0.00 | 0.00 | 75 | 1019.0 |
| 20260906120504 | 45 | 296 | 0.0 | 0.0 | 0.00 | 0.00 | 0.00 | 73 | 1019.1 |
| 20260906115503 | 47 | 296 | 0.0 | 0.0 | 0.00 | 0.00 | 0.00 | 70 | 1019.1 |
| 20260906115004 | 48 | 296 | 0.0 | 0.0 | 0.00 | 0.00 | 0.00 | 70 | 1019.1 |
| 20260906114504 | 48 | 296 | 0.0 | 0.0 | 0.00 | 0.00 | 0.00 | 69 | 1019.1 |
| 20260906114004 | 48 | 296 | 0.0 | 0.0 | 0.00 | 0.00 | 0.00 | 69 | 1019.1 |
| 20260906113504 | 48 | 296 | 0.0 | 0.0 | 0.00 | 0.00 | 0.00 | 68 | 1019.1 |
| 20260906113003 | 48 | 296 | 0.0 | 0.0 | 0.00 | 0.00 | 0.00 | 68 | 1019.0 |
| 20260906112003 | 49 | 296 | 0.0 | 0.0 | 0.00 | 0.00 | 0.00 | 67 | 1019.1 |
| 20260906111503 | 49 | 296 | 0.0 | 0.0 | 0.00 | 0.00 | 0.00 | 67 | 1019.0 |
| 20260906111004 | 49 | 296 | 0.0 | 0.0 | 0.00 | 0.00 | 0.00 | 67 | 1019.1 |
| 20260906110504 | 49 | 296 | 0.0 | 0.0 | 0.00 | 0.00 | 0.00 | 68 | 1019.1 |
| 20260906110004 | 48 | 296 | 0.0 | 0.0 | 0.00 | 0.00 | 0.00 | 69 | 1019.2 |
| 20260906105504 | 48 | 296 | 0.0 | 0.0 | 0.00 | 0.00 | 0.00 | 69 | 1019.1 |
| 20260906105004 | 48 | 296 | 0.0 | 0.0 | 0.00 | 0.00 | 0.00 | 69 | 1019.2 |
| 20260906104504 | 48 | 296 | 0.0 | 0.0 | 0.00 | 0.00 | 0.00 | 68 | 1019.2 |
| 20260906104004 | 49 | 296 | 0.0 | 0.0 | 0.00 | 0.00 | 0.00 | 67 | 1019.2 |
| 20260906103503 | 49 | 296 | 0.0 | 0.0 | 0.00 | 0.00 | 0.00 | 67 | 1019.2 |
| 20260906103003 | 49 | 296 | 0.0 | 0.0 | 0.00 | 0.00 | 0.00 | 67 | 1019.2 |
| 20260906102504 | 49 | 296 | 0.0 | 0.0 | 0.00 | 0.00 | 0.00 | 67 | 1019.3 |
| 20260906101504 | 49 | 296 | 0.0 | 0.0 | 0.00 | 0.00 | 0.00 | 67 | 1019.2 |
| 20260906101004 | 49 | 296 | 0.0 | 0.0 | 0.00 | 0.00 | 0.00 | 66 | 1019.3 |
| 20260906100504 | 50 | 296 | 0.0 | 0.0 | 0.00 | 0.00 | 0.00 | 65 | 1019.3 |
| 20260906100004 | 50 | 296 | 0.0 | 0.0 | 0.00 | 0.00 | 0.00 | 65 | 1019.3 |
| 20260906095504 | 50 | 296 | 0.0 | 0.0 | 0.00 | 0.00 | 0.00 | 65 | 1019.4 |
| 20260906094504 | 50 | 296 | 0.0 | 0.0 | 0.00 | 0.00 | 0.00 | 65 | 1019.5 |
| 20260906094004 | 50 | 296 | 0.0 | 0.0 | 0.00 | 0.00 | 0.00 | 65 | 1019.6 |
| 20260906093503 | 51 | 296 | 0.0 | 0.0 | 0.00 | 0.00 | 0.00 | 64 | 1019.7 |
| 20260906093004 | 51 | 296 | 0.0 | 0.0 | 0.00 | 0.00 | 0.00 | 64 | 1019.7 |
| 20260906092504 | 51 | 296 | 0.0 | 0.0 | 0.00 | 0.00 | 0.00 | 64 | 1019.7 |
| 20260906092004 | 51 | 296 | 0.0 | 0.0 | 0.00 | 0.00 | 0.00 | 64 | 1019.7 |
| 20260906091504 | 51 | 296 | 0.0 | 0.0 | 0.00 | 0.00 | 0.00 | 64 | 1019.8 |
| 20260906091004 | 51 | 296 | 0.0 | 0.0 | 0.00 | 0.00 | 0.00 | 64 | 1019.9 |
| 20260906090503 | 51 | 296 | 0.0 | 0.0 | 0.00 | 0.00 | 0.00 | 64 | 1019.9 |
| 20260906090004 | 51 | 296 | 0.0 | 0.0 | 0.00 | 0.00 | 0.00 | 64 | 1020.0 |
| 20260906085004 | 51 | 297 | 0.0 | 0.0 | 0.00 | 0.00 | 0.00 | 65 | 1019.9 |
| 20260906084504 | 51 | 297 | 0.0 | 0.0 | 0.00 | 0.00 | 0.00 | 65 | 1019.9 |
| 20260906084004 | 51 | 297 | 0.0 | 0.0 | 0.00 | 0.00 | 0.00 | 66 | 1019.9 |
| 20260906083504 | 50 | 297 | 0.0 | 0.0 | 0.00 | 0.00 | 0.00 | 67 | 1020.0 |
| 20260906083004 | 50 | 298 | 0.0 | 0.0 | 0.00 | 0.00 | 0.00 | 67 | 1019.9 |
| 20260906082004 | 50 | 296 | 0.0 | 0.0 | 0.00 | 0.00 | 0.00 | 67 | 1020.0 |
| 20260906081504 | 50 | 297 | 0.0 | 0.0 | 0.00 | 0.00 | 0.00 | 68 | 1020.0 |
| 20260906081004 | 50 | 296 | 0.0 | 0.0 | 0.00 | 0.00 | 0.00 | 68 | 1020.0 |
| 20260906080504 | 50 | 296 | 0.0 | 0.0 | 0.00 | 0.00 | 0.00 | 68 | 1020.0 |
| 20260906080004 | 50 | 294 | 0.0 | 0.0 | 0.00 | 0.00 | 0.00 | 67 | 1020.1 |
| 20260906075504 | 50 | 310 | 0.0 | 0.0 | 0.00 | 0.00 | 0.00 | 67 | 1020.1 |
| 20260906075004 | 51 | 321 | 0.0 | 0.0 | 0.00 | 0.00 | 0.00 | 67 | 1020.1 |
| 20260906074504 | 51 | 289 | 0.0 | 1.0 | 0.00 | 0.00 | 0.00 | 67 | 1020.2 |
| 20260906074004 | 50 | 284 | 0.0 | 1.0 | 0.00 | 0.00 | 0.00 | 69 | 1020.3 |
| 20260906073504 | 50 | 289 | 0.0 | 0.0 | 0.00 | 0.00 | 0.00 | 69 | 1020.4 |
| 20260906073004 | 50 | 286 | 0.0 | 0.0 | 0.00 | 0.00 | 0.00 | 69 | 1020.4 |
| 20260906072503 | 50 | 277 | 0.0 | 0.0 | 0.00 | 0.00 | 0.00 | 69 | 1020.4 |
| 20260906072004 | 50 | 297 | 0.0 | 0.0 | 0.00 | 0.00 | 0.00 | 69 | 1020.3 |
| 20260906071505 | 50 | 303 | 0.0 | 0.0 | 0.00 | 0.00 | 0.00 | 70 | 1020.2 |
| 20260906071004 | 50 | 298 | 0.0 | 0.0 | 0.00 | 0.00 | 0.00 | 71 | 1020.2 |
| 20260906070504 | 50 | 310 | 0.0 | 0.0 | 0.00 | 0.00 | 0.00 | 70 | 1020.0 |
| 20260906065504 | 50 | 309 | 0.0 | 0.0 | 0.00 | 0.00 | 0.00 | 69 | 1020.5 |
| 20260906065004 | 50 | 306 | 0.0 | 0.0 | 0.00 | 0.00 | 0.00 | 69 | 1020.4 |
| 20260906064504 | 50 | 311 | 0.0 | 0.0 | 0.00 | 0.00 | 0.00 | 69 | 1020.5 |
| 20260906064005 | 51 | 307 | 0.0 | 3.0 | 0.00 | 0.00 | 0.00 | 68 | 1020.4 |
| 20260906063504 | 51 | 308 | 0.0 | 0.0 | 0.00 | 0.00 | 0.00 | 68 | 1020.5 |
| 20260906063004 | 51 | 313 | 0.0 | 0.0 | 0.00 | 0.00 | 0.00 | 68 | 1020.7 |
| 20260906062504 | 51 | 313 | 0.0 | 0.0 | 0.00 | 0.00 | 0.00 | 68 | 1020.7 |
| 20260906062004 | 51 | 312 | 0.0 | 0.0 | 0.00 | 0.00 | 0.00 | 67 | 1020.6 |
| 20260906061504 | 52 | 305 | 0.0 | 0.0 | 0.00 | 0.00 | 0.00 | 67 | 1020.7 |
| 20260906061005 | 52 | 288 | 0.0 | 0.0 | 0.00 | 0.00 | 0.00 | 66 | 1020.9 |
| 20260906060504 | 52 | 285 | 0.0 | 0.0 | 0.00 | 0.00 | 0.00 | 67 | 1021.0 |
| 20260906055504 | 51 | 285 | 0.0 | 1.0 | 0.00 | 0.00 | 0.00 | 67 | 1020.9 |
| 20260906054504 | 51 | 314 | 0.0 | 0.0 | 0.00 | 0.00 | 0.00 | 67 | 1020.9 |
| 20260906054004 | 52 | 297 | 0.0 | 1.0 | 0.00 | 0.00 | 0.00 | 67 | 1021.0 |
| 20260906052504 | 52 | 296 | 0.0 | 0.0 | 0.00 | 0.00 | 0.00 | 66 | 1021.1 |
| 20260906052004 | 52 | 311 | 0.0 | 1.0 | 0.00 | 0.00 | 0.00 | 66 | 1021.1 |
| 20260906051504 | 52 | 301 | 0.0 | 1.0 | 0.00 | 0.00 | 0.00 | 68 | 1021.2 |
| 20260906051004 | 51 | 294 | 0.0 | 1.0 | 0.00 | 0.00 | 0.00 | 68 | 1021.2 |
| 20260906050504 | 51 | 290 | 0.0 | 1.0 | 0.00 | 0.00 | 0.00 | 69 | 1021.1 |
| 20260906050004 | 51 | 320 | 0.0 | 1.0 | 0.00 | 0.00 | 0.00 | 69 | 1021.0 |
| 20260906045504 | 51 | 319 | 0.0 | 0.0 | 0.00 | 0.00 | 0.00 | 69 | 1020.9 |
| 20260906044505 | 51 | 301 | 0.0 | 1.0 | 0.00 | 0.00 | 0.00 | 70 | 1021.1 |
| 20260906044004 | 51 | 301 | 0.0 | 1.0 | 0.00 | 0.00 | 0.00 | 70 | 1021.2 |
| 20260906043504 | 51 | 306 | 0.0 | 2.0 | 0.00 | 0.00 | 0.00 | 71 | 1021.2 |
| 20260906043004 | 51 | 302 | 0.0 | 1.0 | 0.00 | 0.00 | 0.00 | 71 | 1021.3 |
| 20260906042004 | 50 | 299 | 0.0 | 2.0 | 0.00 | 0.00 | 0.00 | 73 | 1021.4 |
| 20260906041504 | 50 | 303 | 0.0 | 1.0 | 0.00 | 0.00 | 0.00 | 73 | 1021.4 |
| 20260906041004 | 50 | 304 | 0.0 | 1.0 | 0.00 | 0.00 | 0.00 | 74 | 1021.3 |
| 20260906040504 | 50 | 309 | 0.0 | 1.0 | 0.00 | 0.00 | 0.00 | 74 | 1021.3 |
| 20260906040004 | 51 | 306 | 0.0 | 1.0 | 0.00 | 0.00 | 0.00 | 74 | 1021.4 |
| 20260906035504 | 51 | 311 | 0.0 | 1.0 | 0.00 | 0.00 | 0.00 | 74 | 1021.4 |
| 20260906034504 | 51 | 311 | 0.0 | 1.0 | 0.00 | 0.00 | 0.00 | 73 | 1021.3 |
| 20260906033004 | 51 | 311 | 0.0 | 1.0 | 0.00 | 0.00 | 0.00 | 73 | 1021.2 |
| 20260906032504 | 52 | 311 | 0.0 | 1.0 | 0.00 | 0.00 | 0.00 | 73 | 1021.2 |
| 20260906032004 | 52 | 310 | 0.0 | 1.0 | 0.00 | 0.00 | 0.00 | 72 | 1021.1 |
| 20260906031504 | 52 | 307 | 0.0 | 2.0 | 0.00 | 0.00 | 0.00 | 72 | 1021.1 |
| 20260906031005 | 52 | 308 | 0.0 | 2.0 | 0.00 | 0.00 | 0.00 | 71 | 1021.1 |
| 20260906030504 | 53 | 320 | 0.0 | 1.0 | 0.00 | 0.00 | 0.00 | 71 | 1021.1 |
| 20260906030004 | 53 | 319 | 0.0 | 1.0 | 0.00 | 0.00 | 0.00 | 71 | 1021.1 |
| 20260906025504 | 53 | 307 | 0.0 | 2.0 | 0.00 | 0.00 | 0.00 | 71 | 1021.1 |
| 20260906025004 | 53 | 307 | 0.0 | 2.0 | 0.00 | 0.00 | 0.00 | 71 | 1021.1 |
| 20260906024504 | 53 | 307 | 0.0 | 2.0 | 0.00 | 0.00 | 0.00 | 70 | 1021.1 |
| 20260906024004 | 53 | 310 | 0.0 | 1.0 | 0.00 | 0.00 | 0.00 | 70 | 1021.0 |
| 20260906023504 | 54 | 312 | 0.0 | 1.0 | 0.00 | 0.00 | 0.00 | 70 | 1021.0 |
| 20260906023004 | 54 | 304 | 0.0 | 3.0 | 0.00 | 0.00 | 0.00 | 69 | 1021.0 |
| 20260906022504 | 54 | 303 | 0.0 | 3.0 | 0.00 | 0.00 | 0.00 | 69 | 1021.0 |
| 20260906022004 | 55 | 311 | 0.0 | 3.0 | 0.00 | 0.00 | 0.00 | 68 | 1020.9 |
| 20260906021004 | 55 | 306 | 0.0 | 2.0 | 0.00 | 0.00 | 0.00 | 67 | 1020.9 |
| 20260906020503 | 56 | 309 | 0.0 | 3.0 | 0.00 | 0.00 | 0.00 | 66 | 1020.9 |
| 20260906020004 | 56 | 316 | 0.0 | 3.0 | 0.00 | 0.00 | 0.00 | 65 | 1020.9 |
| 20260906015005 | 57 | 311 | 1.0 | 3.0 | 0.00 | 0.00 | 0.00 | 63 | 1020.9 |
| 20260906014504 | 57 | 315 | 0.0 | 3.0 | 0.00 | 0.00 | 0.00 | 63 | 1020.9 |
| 20260906014004 | 57 | 312 | 0.0 | 3.0 | 0.00 | 0.00 | 0.00 | 64 | 1021.0 |
| 20260906013504 | 57 | 326 | 1.0 | 3.0 | 0.00 | 0.00 | 0.00 | 64 | 1021.0 |
| 20260906013004 | 57 | 316 | 1.0 | 6.0 | 0.00 | 0.00 | 0.00 | 63 | 1020.9 |
| 20260906012504 | 57 | 309 | 2.0 | 8.0 | 0.00 | 0.00 | 0.00 | 63 | 1020.9 |
| 20260906012004 | 57 | 304 | 2.0 | 8.0 | 0.00 | 0.00 | 0.00 | 63 | 1020.9 |
| 20260906011504 | 58 | 310 | 3.0 | 8.0 | 0.00 | 0.00 | 0.00 | 63 | 1020.9 |
| 20260906011004 | 58 | 307 | 2.0 | 12.0 | 0.00 | 0.00 | 0.00 | 63 | 1020.9 |
| 20260906010504 | 58 | 314 | 2.0 | 6.0 | 0.00 | 0.00 | 0.00 | 63 | 1020.9 |
| 20260906010004 | 58 | 304 | 1.0 | 3.0 | 0.00 | 0.00 | 0.00 | 62 | 1020.8 |
| 20260906005503 | 59 | 314 | 2.0 | 3.0 | 0.00 | 0.00 | 0.00 | 61 | 1020.8 |
| 20260906005005 | 59 | 319 | 1.0 | 7.0 | 0.00 | 0.00 | 0.00 | 61 | 1020.8 |
| 20260906004504 | 59 | 301 | 3.0 | 7.0 | 0.00 | 0.00 | 0.00 | 62 | 1020.7 |
| 20260906004004 | 59 | 312 | 3.0 | 8.0 | 0.00 | 0.00 | 0.00 | 62 | 1020.7 |
| 20260906003504 | 60 | 309 | 3.0 | 8.0 | 0.00 | 0.00 | 0.00 | 61 | 1020.6 |
| 20260906003004 | 60 | 319 | 2.0 | 12.0 | 0.00 | 0.00 | 0.00 | 61 | 1020.6 |
| 20260906002504 | 60 | 316 | 2.0 | 5.0 | 0.00 | 0.00 | 0.00 | 60 | 1020.6 |
| 20260906002004 | 60 | 315 | 3.0 | 7.0 | 0.00 | 0.00 | 0.00 | 61 | 1020.5 |
| 20260906001504 | 61 | 321 | 2.0 | 6.0 | 0.00 | 0.00 | 0.00 | 59 | 1020.5 |
| 20260906001004 | 61 | 309 | 3.0 | 9.0 | 0.00 | 0.00 | 0.00 | 58 | 1020.5 |
| 20260906000503 | 62 | 305 | 3.0 | 5.0 | 0.00 | 0.00 | 0.00 | 56 | 1020.5 |
| 20260906000004 | 63 | 310 | 2.0 | 5.0 | 0.00 | 0.00 | 0.00 | 53 | 1020.5 |
| 20260905235504 | 64 | 316 | 2.0 | 8.0 | 0.00 | 0.00 | 0.00 | 51 | 1020.4 |
| 20260905235004 | 65 | 314 | 2.0 | 7.0 | 0.00 | 0.00 | 0.00 | 49 | 1020.4 |
| 20260905234504 | 65 | 308 | 2.0 | 8.0 | 0.00 | 0.00 | 0.00 | 48 | 1020.4 |
| 20260905233504 | 66 | 311 | 2.0 | 10.0 | 0.00 | 0.00 | 0.00 | 46 | 1020.4 |
| 20260905233004 | 68 | 324 | 1.0 | 10.0 | 0.00 | 0.00 | 0.00 | 45 | 1020.3 |
| 20260905232504 | 69 | 332 | 0.0 | 3.0 | 0.00 | 0.00 | 0.00 | 43 | 1020.3 |
| 20260905232004 | 68 | 333 | 0.0 | 2.0 | 0.00 | 0.00 | 0.00 | 43 | 1020.2 |
| 20260905231504 | 68 | 342 | 0.0 | 3.0 | 0.00 | 0.00 | 0.00 | 43 | 1020.2 |
| 20260905231004 | 68 | 338 | 0.0 | 8.0 | 0.00 | 0.00 | 0.00 | 42 | 1020.2 |
| 20260905230504 | 69 | 334 | 0.0 | 2.0 | 0.00 | 0.00 | 0.00 | 39 | 1020.2 |
| 20260905230004 | 70 | 22 | 0.0 | 0.0 | 0.00 | 0.00 | 0.00 | 36 | 1020.2 |
| 20260905225504 | 70 | 50 | 0.0 | 0.0 | 0.00 | 0.00 | 0.00 | 37 | 1020.2 |